Regional Weather Roundup
Issued by NWS

Home | Current Version | Previous Version | Text Only | Print | Product List | Glossary On
Versions: 1 2 3 4 5 6 7 8 9 10 11 12 13 14 15 16 17 18 19 20 21 22 23 24 25 26 27 28
000
ASUS45 KTFX 191210
RWRMT
MONTANA REGIONAL WEATHER ROUNDUP
NATIONAL WEATHER SERVICE GREAT FALLS MT
600 AM MDT THU APR 19 2018

NOTE: "FAIR" INDICATES FEW OR NO CLOUDS BELOW 12000 FEET WITH NO
SIGNIFICANT WEATHER AND/OR OBSTRUCTIONS TO VISIBILITY.

MTZ001>007-043-191300-
WEST OF THE DIVIDE

CITY           SKY/WX    TMP DP  RH WIND       PRES   REMARKS
KALISPELL      FAIR      35  27  72 N6        30.13R WCI  30
MISSOULA       FAIR      31  23  72 CALM      30.12S
BUTTE          FAIR      27  20  75 CALM      30.09S
MULLAN PASS    FAIR      30  17  58 SE7       30.06S WCI  23
ANACONDA         N/A     28  21  74 S5        30.10S
DEER LODGE       N/A     27  25  93 CALM      30.12S
HAMILTON         N/A     28  23  80 MISG      30.11S
PLAINS           N/A     30  24  78 CALM      30.14R
RONAN            N/A     32  28  86 E3        30.14S
$$

MTZ008-052>055-191300-
SOUTHWEST MONTANA

CITY           SKY/WX    TMP DP  RH WIND       PRES   REMARKS
BOZEMAN        FAIR      29  24  82 E3        30.10S
DILLON         FAIR      26  22  84 SE5       30.07S
ENNIS          MOCLDY    27  21  80 CALM      30.11S
W YELLOWSTONE  MOCLDY    21  19  93 CALM      30.06F
THREE FORKS      N/A     29  25  85 CALM      30.08S
TWIN BRIDGES     N/A     29  17  60 NE2       30.05S
$$

MTZ009-010-012-014-046-048-049-054-191300-
EAST SLOPES AND CENTRAL MONTANA

CITY           SKY/WX    TMP DP  RH WIND       PRES   REMARKS
CUT BANK       FAIR      29  26  89 E5        30.15S
GREAT FALLS    FAIR      30  26  85 SW3       30.14R
HELENA         FAIR      34  22  61 SW7       30.12S WCI  28
CHOTEAU          N/A     30  27  86 NW6       30.16S WCI  24
WHITE SULPHUR    N/A     27  21  80 S7        30.10F WCI  19
$$

MTZ011-013-016-021-045-047-050-051-191300-
NORTH CENTRAL MONTANA

CITY           SKY/WX    TMP DP  RH WIND       PRES   REMARKS
HAVRE          FAIR      35  32  88 E14       30.18S WCI  26
LEWISTOWN      FAIR      37  24  59 E12       30.15R WCI  29
N BAR RANCH    FAIR      32  23  69 CALM      30.20S
CHINOOK          N/A     34  34 100 MISG      30.23S
$$

MTZ017>020-022>027-061-062-191300-
NORTHEAST MONTANA

CITY           SKY/WX    TMP DP  RH WIND       PRES   REMARKS
GLASGOW        FOG       31  30  96 SE15      30.30S VSB 1   WCI  20
GLENDIVE       MIX PCPN  31  31 100 NE8       30.32S VSB 1/4 WCI  23
JORDAN           N/A     33  30  88 E5        30.25S
MALTA          CLEAR     36  32  87 NE12      30.26S WCI  27
SIDNEY         FOG       33  31  92 E5        30.36S VSB 1/2
WOLF POINT     FOG       33  31  92 E14       30.35F VSB 1/2 WCI  23
PLENTYWOOD       N/A     28  28 100 SE5       30.37S VSB 0
POPLAR           N/A     32  30  93 CALM      30.36F VSB 0
SCOBEY           N/A     28  21  75 CALM      30.30R VSB 0
$$

MTZ028>42-056>058-191300-
SOUTHCENTRAL AND SOUTHEAST MONTANA

CITY           SKY/WX    TMP DP  RH WIND       PRES   REMARKS
BAKER          FAIR      27  27 100 SE6       30.31R WCI  20
BILLINGS       MOCLDY    34  26  72 N6        30.15R WCI  29
LIVINGSTON     FAIR      29  25  85 NW6       30.12S WCI  23
MILES CITY     FAIR      32  31  96 NE9       30.26S WCI  24
BIG TIMBER     PTCLDY    34  23  64 NE6       30.15S WCI  29
FORSYTH          N/A     34  34 100 E5        30.23S
LAUREL           N/A     37  25  60 N14       30.15S WCI  29
$$

REGIONAL REPORTS...DAKOTAS

CITY           SKY/WX    TMP DP  RH WIND       PRES   REMARKS
WILLISTON      FOG       34  33  96 N5        30.38R VSB 1/2
MINOT          CLOUDY    35  33  92 W8        30.39R FOG     WCI  29
DICKINSON      FOG       24  22  91 E3        30.32S VSB<1/4
BEACH          FAIR      28  28 100 SE7       30.35R WCI  21
CROSBY         FOG       30  30 100 S5        30.40R VSB 1/2
TIOGA          FOG       30  30 100 NE8       30.38S VSB 1/4 WCI  23
WATFORD CITY   FOG       30  30 100 CALM      30.36S VSB<1/4
BISMARCK       FAIR      25  25 100 CALM      30.40  FOG
GRAND FORKS    MOCLDY    28  27  96 S5        30.36R
FARGO          FAIR      29  28  96 CALM      30.37R
BUFFALO SD       N/A     31  28  89 E5        30.24S
RAPID CITY     FAIR      29  27  92 CALM      30.32F
$$

REGIONAL REPORTS...WYOMING/IDAHO/WASHINGTON

CITY           SKY/WX    TMP DP  RH WIND       PRES   REMARKS
GILLETTE       FAIR      35  25  66 SE15      30.24R WCI  25
SHERIDAN       FAIR      39  25  57 S9        30.16F
BUFFALO WY     FAIR      35  22  58 S7        30.21S WCI  29
CODY           FAIR      34  25  69 CALM      30.13F
YELLOWSTONE LA   N/A     20  14  77 NW3       30.10F
IDAHO FALLS    CLOUDY    35  27  72 N9        29.97F WCI  28
SALMON         FAIR      34  27  75 CALM      30.06S
BOISE          FAIR      43  35  73 S3        29.92R
SPOKANE        FAIR      36  29  75 NE6       30.11S WCI  31
$$

REGIONAL REPORTS...ALBERTA

CITY           SKY/WX    TMP DP  RH WIND       PRES   REMARKS
CALGARY        PTCLDY    27  19  74 CALM      30.15S
CARDSTON         N/A     28  23  80 S2          N/A
EDMONTON       CLEAR     28  16  59 SW3       30.16R
FORT MCMURRAY  CLEAR     32  21  64 S3        30.11S
HIGH LEVEL     CLEAR     30  21  69 S5        29.90S
LETHBRIDGE     MOCLDY    30  27  86 S3G21     30.17S
LLOYDMINSTER   CLEAR     28  27  93 S6        30.21S WCI  22
MEDICINE HAT   CLEAR     34  28  80 N6        30.20S WCI  29
MILK RIVER       N/A     28  27  93 N1          N/A
ONEFOUR          N/A     32  30  93 E15         N/A  WCI  22
PEACE RIVER    PTCLDY    30  21  69 SW5       30.04S
PINCHER CREEK  MOCLDY    27  23  86 W7        30.15S WCI  19
$$

REGIONAL REPORTS...SASKATCHEWAN

CITY           SKY/WX    TMP DP  RH WIND       PRES   REMARKS
CORONACH         N/A     27  25  93 S5          N/A
CYPRESS HILLS    N/A     30  25  80 SE9         N/A  WCI  22
ESTEVAN        FOG       30  30 100 S3        30.39R VSB 1/8
MOOSE JAW        N/A     27  25  93 S6          N/A  WCI  20
PRINCE ALBERT  PTCLDY    28  25  86 S5        30.32S
REGINA         FOG       23  21  93 SE7       30.36S VSB 1   WCI  15
ROCKGLEN         N/A     27  25  93 S7          N/A  WCI  19
SASKATOON      PTCLDY    30  25  80 S6        30.32R WCI  24
SWIFT CURRENT  CLEAR     28  25  86 S9        30.27R WCI  20
$$




USA.gov is the U.S. government's official web portal to all federal, state and local government web resources and services.